Location: Newark
(27.9675°N, 86.8869°E)
Time: 17:31:52
(UTC+00:00)

Courier 1B Rocket - Pass Details

Date: 16 October 2019
Orbit: 920 x 1202 km, 28.2° (Epoch: 12 November)

Event Time Altitude Azimuth Distance (km) Brightness Sun altitude
Rises 05:39:31 0° 271° (W) 3,836 8.1 53.0°
Reaches altitude 10° 05:42:50 10° 257° (WSW) 2,930 7.7 53.1°
Maximum altitude 05:48:12 22° 208° (SSW) 2,215 7.8 53.2°
Drops below altitude 10° 05:53:48 10° 160° (SSE) 3,063 8.4 53.2°
Sets 05:57:23 0° 147° (SSE) 4,055 8.7 53.2°
